SL-14 R/B, 19211

Orbit data source: Space-Track

SL-14 R/B, 19211 is space debris in LEO originally from a launch on Tue, 14 Jun 1988 UTC launched from the Plesetsk Missile And Space Complex (PKMTR). Debris objects in space refer to the collection of defunct objects orbiting the Earth. Examples of debris include non-operational satellites, rocket bodies, and fragments generated from explosions, collisions, or faulty payload assembly.

Loading next visibility...
Identifier
19211, 1988-050B
Orbit
LEO
Country
Flag of CISCIS
Related business
Manufacturer
Yuzhnoe
Mission
Spacecraft
Bus & Motor
S5M, Unknown motor
Mass
1,600 kg wet, 1,600 kg dry
Launch date (UTC)
1988-06-14 (38 years ago)
Launch vehicle
Unknown
Launch site
Plesetsk Missile And Space Complex (PKMTR)
Object type
Payload
Rocket body
Debris
Shape & HBR
Cyl, 1.4 m
Radar Cross Section
7.351 m², Large (>1 m²)

Expand to show TLE details & history
Last TLE update: 7 hours ago

TLE from 7 hours ago
0 SL-14 R/B
1 19211U 88050B   26249.60907577  .00000196  00000-0  19774-4 0  9997
2 19211  82.5238 288.5171 0021290 162.3831 197.8129 14.85507500 45162
Epoch: 2026-09-06T14:37Z
TLE epoch observation values (Epoch: 2026-09-06T14:37:04.146Z)
Latitude
0.00002°
Longitude
83.54809°
Altitude
629.209 km
Speed
7.536 km/s
True Right ascension
19h 14m 04s
True Declination
0° 00' 00"
Sunlit
Object was in full shadow at epoch
Visualization orbit readout
Latitude
Unknown
Longitude
Unknown
Altitude
Unknown
Speed
Unknown
Apparent Right ascension
Unknown
Apparent Declination
Unknown
Sunlit
N/A
Visualization observer readout
Local Sidereal Time
13:21:12
Azimuth
Unknown
Elevation
Unknown
Doppler factor
Unknown
Orbital elements
Apogee altitude
623.884 km
Perigee altitude
594.133 km
Semi-major axis
6,987.145 km
Eccentricity
0.00213
Inclination
82.5238°
RAAN
288.5171°
Arg. of periapsis
162.3831°
True anomaly
197.73846°
Mean anomaly
197.8129°
Eccentric anomaly
197.77566°
Mean motion
3.71615 °/min
Orbital period
96.87 mins
BSTAR
0.000019774
Loading maneuver chart data...
Computing Atmospheric mass density...
Loading historical data...
Loading historical data...
Loading historical data...
Loading historical data...
Loading historical data...
Loading historical data...
Loading historical data...
Other satellites on launch #50 in the year 1988 (1988-06-14 UTC)

Documentation

Showing up to 5 results
|